| time (UTC) | temp F | wind direction | speed MPH | gust MPH | rain 1hr in | rain 24hr in | rain mn in | humidity % | barometer mb |
| 20260502212705 | 51 | 121 | 2.0 | 3.0 | 0.00 | 0.00 | 0.00 | 69 | 1018.3 |
| 20260502211704 | 51 | 105 | 3.0 | 3.0 | 0.00 | 0.00 | 0.00 | 70 | 1018.3 |
| 20260502210704 | 53 | 90 | 2.0 | 5.0 | 0.00 | 0.00 | 0.00 | 66 | 1018.3 |
| 20260502210205 | 53 | 107 | 2.0 | 5.0 | 0.00 | 0.00 | 0.00 | 65 | 1018.4 |
| 20260502205705 | 53 | 98 | 3.0 | 6.0 | 0.00 | 0.00 | 0.00 | 64 | 1018.3 |
| 20260502204704 | 54 | 99 | 3.0 | 6.0 | 0.00 | 0.00 | 0.00 | 63 | 1018.4 |
| 20260502203706 | 55 | 114 | 3.0 | 6.0 | 0.00 | 0.00 | 0.00 | 60 | 1018.5 |
| 20260502202705 | 55 | 119 | 3.0 | 6.0 | 0.00 | 0.00 | 0.00 | 61 | 1018.5 |
| 20260502201205 | 56 | 111 | 3.0 | 7.0 | 0.00 | 0.00 | 0.00 | 60 | 1018.5 |
| 20260502194703 | 53 | 97 | 3.0 | 6.0 | 0.00 | 0.00 | 0.00 | 69 | 1018.6 |
| 20260502193203 | 54 | 96 | 1.0 | 2.0 | 0.00 | 0.00 | 0.00 | 70 | 1018.8 |
| 20260502192703 | 54 | 81 | 1.0 | 2.0 | 0.00 | 0.00 | 0.00 | 69 | 1018.7 |
| 20260502191703 | 55 | 81 | 1.0 | 2.0 | 0.00 | 0.00 | 0.00 | 68 | 1018.7 |
| 20260502191203 | 55 | 115 | 1.0 | 3.0 | 0.00 | 0.00 | 0.00 | 67 | 1018.8 |
| 20260502190703 | 56 | 115 | 1.0 | 3.0 | 0.00 | 0.00 | 0.00 | 66 | 1018.7 |
| 20260502185703 | 56 | 92 | 1.0 | 2.0 | 0.00 | 0.00 | 0.00 | 65 | 1018.8 |
| 20260502184703 | 58 | 90 | 1.0 | 2.0 | 0.00 | 0.00 | 0.00 | 61 | 1018.8 |
| 20260502183702 | 58 | 90 | 2.0 | 3.0 | 0.00 | 0.00 | 0.00 | 58 | 1018.7 |
| 20260502183202 | 59 | 99 | 1.0 | 3.0 | 0.00 | 0.00 | 0.00 | 57 | 1018.7 |
| 20260502180705 | 63 | 119 | 1.0 | 3.0 | 0.00 | 0.00 | 0.00 | 48 | 1018.6 |
| 20260502180203 | 64 | 119 | 2.0 | 3.0 | 0.00 | 0.00 | 0.00 | 46 | 1018.5 |
| 20260502164203 | 69 | 143 | 3.0 | 8.0 | 0.00 | 0.00 | 0.00 | 37 | 1018.7 |
| 20260502163704 | 69 | 104 | 5.0 | 9.0 | 0.00 | 0.00 | 0.00 | 36 | 1018.8 |
| 20260502163205 | 70 | 132 | 5.0 | 9.0 | 0.00 | 0.00 | 0.00 | 35 | 1018.9 |
| 20260502162703 | 70 | 140 | 3.0 | 9.0 | 0.00 | 0.00 | 0.00 | 35 | 1019.0 |
| 20260502162203 | 70 | 174 | 3.0 | 9.0 | 0.00 | 0.00 | 0.00 | 35 | 1019.0 |
| 20260502161203 | 70 | 168 | 1.0 | 9.0 | 0.00 | 0.00 | 0.00 | 35 | 1019.0 |
| 20260502160703 | 71 | 172 | 4.0 | 9.0 | 0.00 | 0.00 | 0.00 | 34 | 1019.1 |
| 20260502152203 | 71 | 131 | 2.0 | 3.0 | 0.00 | 0.00 | 0.00 | 34 | 1019.5 |
| 20260502150703 | 71 | 282 | 3.0 | 5.0 | 0.00 | 0.00 | 0.00 | 35 | 1019.7 |
| 20260502121203 | 71 | 208 | 2.0 | 8.0 | 0.00 | 0.00 | 0.00 | 38 | 1021.8 |
| 20260502114203 | 69 | 321 | 2.0 | 6.0 | 0.00 | 0.00 | 0.00 | 39 | 1022.1 |
| 20260502113704 | 70 | 156 | 3.0 | 7.0 | 0.00 | 0.00 | 0.00 | 40 | 1022.2 |
| 20260502113203 | 70 | 170 | 3.0 | 7.0 | 0.00 | 0.00 | 0.00 | 38 | 1022.4 |
| 20260502112703 | 70 | 213 | 4.0 | 7.0 | 0.00 | 0.00 | 0.00 | 40 | 1022.4 |
| 20260502112203 | 70 | 214 | 2.0 | 7.0 | 0.00 | 0.00 | 0.00 | 41 | 1022.4 |
| 20260502111202 | 70 | 260 | 3.0 | 9.0 | 0.00 | 0.00 | 0.00 | 40 | 1022.6 |
| 20260502110704 | 70 | 165 | 5.0 | 9.0 | 0.00 | 0.00 | 0.00 | 40 | 1022.6 |
| 20260502110203 | 70 | 163 | 3.0 | 8.0 | 0.00 | 0.00 | 0.00 | 43 | 1022.7 |
| 20260502105703 | 70 | 152 | 5.0 | 8.0 | 0.00 | 0.00 | 0.00 | 44 | 1022.8 |
| 20260502105203 | 69 | 219 | 2.0 | 8.0 | 0.00 | 0.00 | 0.00 | 45 | 1022.8 |
| 20260502104703 | 69 | 211 | 3.0 | 9.0 | 0.00 | 0.00 | 0.00 | 44 | 1022.9 |
| 20260502104204 | 69 | 222 | 5.0 | 9.0 | 0.00 | 0.00 | 0.00 | 46 | 1023.0 |
| 20260502103704 | 69 | 203 | 5.0 | 9.0 | 0.00 | 0.00 | 0.00 | 44 | 1023.0 |
| 20260502102203 | 69 | 223 | 2.0 | 7.0 | 0.00 | 0.00 | 0.00 | 48 | 1023.0 |
| 20260502101703 | 69 | 217 | 4.0 | 12.0 | 0.00 | 0.00 | 0.00 | 47 | 1023.0 |
| 20260502101203 | 69 | 134 | 4.0 | 12.0 | 0.00 | 0.00 | 0.00 | 47 | 1023.0 |
| 20260502100703 | 68 | 191 | 5.0 | 12.0 | 0.00 | 0.00 | 0.00 | 47 | 1023.1 |
| 20260502090205 | 66 | 243 | 3.0 | 8.0 | 0.00 | 0.00 | 0.00 | 53 | 1023.8 |
| 20260502070704 | 61 | 240 | 1.0 | 3.0 | 0.00 | 0.00 | 0.00 | 61 | 1024.4 |
| 20260502070204 | 61 | 238 | 2.0 | 3.0 | 0.00 | 0.00 | 0.00 | 63 | 1024.5 |
| 20260502065203 | 61 | 233 | 2.0 | 3.0 | 0.00 | 0.00 | 0.00 | 64 | 1024.5 |
| 20260502064703 | 60 | 223 | 1.0 | 3.0 | 0.00 | 0.00 | 0.00 | 68 | 1024.5 |
| 20260502064203 | 60 | 223 | 2.0 | 3.0 | 0.00 | 0.00 | 0.00 | 68 | 1024.5 |
| 20260502061704 | 58 | 32 | 1.0 | 2.0 | 0.00 | 0.00 | 0.00 | 65 | 1024.7 |
| 20260502055704 | 54 | 32 | 0.0 | 1.0 | 0.00 | 0.00 | 0.00 | 77 | 1024.7 |
| 20260502044703 | 41 | 32 | 1.0 | 2.0 | 0.00 | 0.00 | 0.00 | 92 | 1024.7 |
| 20260502044203 | 41 | 32 | 1.0 | 3.0 | 0.00 | 0.00 | 0.00 | 93 | 1024.7 |
| 20260502043704 | 40 | 32 | 1.0 | 3.0 | 0.00 | 0.00 | 0.00 | 93 | 1024.6 |
| 20260502043204 | 40 | 32 | 2.0 | 3.0 | 0.00 | 0.00 | 0.00 | 93 | 1024.7 |
| 20260502042704 | 40 | 32 | 2.0 | 3.0 | 0.00 | 0.00 | 0.00 | 93 | 1024.7 |
| 20260502041204 | 39 | 32 | 2.0 | 2.0 | 0.00 | 0.00 | 0.00 | 94 | 1024.6 |
| 20260502035705 | 39 | 32 | 2.0 | 3.0 | 0.00 | 0.00 | 0.00 | 93 | 1024.6 |
| 20260502035204 | 39 | 32 | 1.0 | 2.0 | 0.00 | 0.00 | 0.00 | 92 | 1024.7 |
| 20260502034204 | 39 | 32 | 1.0 | 3.0 | 0.00 | 0.00 | 0.00 | 92 | 1024.6 |
| 20260502033703 | 39 | 32 | 2.0 | 3.0 | 0.00 | 0.00 | 0.00 | 92 | 1024.5 |
| 20260502032204 | 39 | 46 | 2.0 | 3.0 | 0.00 | 0.00 | 0.00 | 92 | 1024.6 |
| 20260502031204 | 39 | 46 | 2.0 | 3.0 | 0.00 | 0.00 | 0.00 | 93 | 1024.6 |
| 20260502030704 | 39 | 46 | 1.0 | 2.0 | 0.00 | 0.00 | 0.00 | 93 | 1024.6 |
| 20260502025203 | 39 | 46 | 2.0 | 3.0 | 0.00 | 0.00 | 0.00 | 92 | 1024.7 |
| 20260502024704 | 40 | 46 | 2.0 | 3.0 | 0.00 | 0.00 | 0.00 | 93 | 1024.7 |
| 20260502024204 | 40 | 46 | 2.0 | 3.0 | 0.00 | 0.00 | 0.00 | 93 | 1024.8 |
| 20260502023204 | 39 | 46 | 2.0 | 3.0 | 0.00 | 0.00 | 0.00 | 93 | 1024.8 |
| 20260502021704 | 39 | 46 | 2.0 | 3.0 | 0.00 | 0.00 | 0.00 | 93 | 1024.9 |
| 20260502021204 | 39 | 46 | 2.0 | 3.0 | 0.00 | 0.00 | 0.00 | 93 | 1024.9 |
| 20260502020204 | 40 | 46 | 1.0 | 2.0 | 0.00 | 0.00 | 0.00 | 92 | 1024.9 |
| 20260502015204 | 40 | 46 | 2.0 | 3.0 | 0.00 | 0.00 | 0.00 | 92 | 1025.0 |
| 20260502014204 | 40 | 46 | 1.0 | 3.0 | 0.00 | 0.00 | 0.00 | 92 | 1025.0 |
| 20260502011704 | 40 | 46 | 1.0 | 2.0 | 0.00 | 0.00 | 0.00 | 92 | 1025.2 |
| 20260502011205 | 41 | 46 | 2.0 | 2.0 | 0.00 | 0.00 | 0.00 | 92 | 1025.3 |
| 20260502010704 | 41 | 46 | 1.0 | 3.0 | 0.00 | 0.00 | 0.00 | 92 | 1025.3 |
| 20260502010203 | 41 | 46 | 1.0 | 3.0 | 0.00 | 0.00 | 0.00 | 92 | 1025.4 |
| 20260502005705 | 41 | 46 | 2.0 | 3.0 | 0.00 | 0.00 | 0.00 | 92 | 1025.3 |
| 20260502005203 | 41 | 46 | 2.0 | 2.0 | 0.00 | 0.00 | 0.00 | 92 | 1025.3 |
| 20260502003204 | 41 | 46 | 2.0 | 3.0 | 0.00 | 0.00 | 0.00 | 92 | 1025.5 |
| 20260502001703 | 41 | 46 | 2.0 | 3.0 | 0.00 | 0.00 | 0.00 | 92 | 1025.6 |
| 20260501234704 | 41 | 46 | 2.0 | 3.0 | 0.00 | 0.00 | 0.00 | 91 | 1025.8 |
| 20260501233204 | 42 | 46 | 1.0 | 2.0 | 0.00 | 0.00 | 0.00 | 90 | 1025.8 |
| 20260501232704 | 42 | 46 | 1.0 | 2.0 | 0.00 | 0.00 | 0.00 | 90 | 1025.8 |
| 20260501231704 | 42 | 46 | 1.0 | 3.0 | 0.00 | 0.00 | 0.00 | 90 | 1025.9 |
| 20260501231204 | 42 | 46 | 1.0 | 3.0 | 0.00 | 0.00 | 0.00 | 90 | 1025.9 |
| 20260501225704 | 42 | 46 | 2.0 | 3.0 | 0.00 | 0.00 | 0.00 | 90 | 1025.9 |
| 20260501224704 | 42 | 46 | 1.0 | 3.0 | 0.00 | 0.00 | 0.00 | 91 | 1025.9 |
| 20260501223704 | 43 | 46 | 2.0 | 3.0 | 0.00 | 0.00 | 0.00 | 90 | 1026.1 |
| 20260501221204 | 43 | 46 | 2.0 | 3.0 | 0.00 | 0.00 | 0.00 | 90 | 1026.1 |
| 20260501215704 | 44 | 46 | 1.0 | 3.0 | 0.00 | 0.00 | 0.00 | 88 | 1026.1 |